[[{"header":{"parameterUnit":"m.s-1","parameterCategory":2,"la1":30.2991,"la2":30.254,"lo1":-89.0895,"lo2":-89.0444,"dx":0.0017,"dy":0.0017,"nx":28,"ny":28,"refTime":"2022-12-12T03:00:00:Z","depth":"0","parameterNumber":2,"parameterNumberName":"U-component_of_CURRENTS"},"data":[0,0,0,0,0,0,0,0,0,0,0,0,0,0,0,0,0,0,0,0,0,0,0,0,0,0,0,0,0,0,0,0,0,0,0,0,0,0,0,0,0,0,0,0,0,0,0,0,0,0,0,0,0,0,0,0,0,0,-0.4102,-0.4105,0,-0.4226,-0.4226,-0.4226,-0.4117,-0.4115,-0.4112,-0.411,-0.3842,-0.3838,-0.3833,0,0,0,0,0,0,0,0,0,0,0,0,0,-0.3794,-0.3798,-0.4102,-0.4105,-0.4109,-0.4227,-0.4226,-0.4226,-0.4118,-0.4115,-0.4111,-0.4108,-0.3844,-0.3838,-0.3833,0,0,0,0,0,0,0,0,0,0,0,0,0,-0.3904,-0.38,-0.4101,-0.4084,-0.4085,-0.4227,-0.4226,-0.4226,-0.4118,-0.4114,-0.4111,-0.4107,-0.3846,-0.3839,-0.3832,-0.3865,0,0,-0.381,-0.3807,0,0,0,0,0,0,0,0,-0.3898,-0.3913,-0.4083,-0.4086,-0.4088,-0.4171,-0.4021,-0.4093,-0.4119,-0.4084,-0.411,-0.4105,-0.3932,-0.3918,-0.3926,-0.3853,-0.3841,-0.381,-0.3805,-0.3802,-0.38,0,0,0,0,0,0,0,-0.389,-0.3908,-0.413,-0.4088,-0.4091,-0.4081,-0.4089,-0.4034,-0.4005,-0.4087,-0.4084,-0.4133,-0.3927,-0.3933,-0.3918,-0.3837,-0.381,-0.3804,-0.3799,-0.3796,-0.3724,-0.3726,0,0,0,0,0,0,-0.3921,-0.3901,-0.4126,-0.4136,-0.4005,-0.409,-0.4099,-0.4131,-0.4014,-0.4002,-0.4136,-0.4128,-0.3947,-0.3926,-0.3908,-0.3833,-0.3802,-0.3796,-0.3792,-0.3722,-0.3724,-0.3727,0,0,0,0,0,0,-0.3914,-0.394,-0.4122,-0.4038,-0.4063,-0.4102,-0.4137,-0.4136,-0.4127,-0.406,-0.4034,-0.4129,-0.3943,-0.3918,-0.3853,-0.3825,-0.3792,-0.3786,-0.3719,-0.3722,-0.3726,-0.3751,0,0,0,0,0,0,-0.3904,-0.3935,-0.3929,-0.404,-0.407,-0.4189,-0.4143,-0.4142,-0.4175,-0.4163,-0.4046,-0.4019,-0.3938,-0.3865,-0.3846,-0.3815,-0.3781,-0.3716,-0.372,-0.3724,-0.3748,-0.3755,-0.3762,0,0,0,0,0,-0.3892,-0.3896,-0.3927,-0.3954,-0.4072,-0.4193,-0.4203,-0.4204,-0.4178,-0.4177,-0.4107,-0.4021,-0.3879,-0.3861,-0.3839,-0.3804,-0.3714,-0.3719,-0.3724,-0.3744,-0.3754,-0.3762,0,0,0,0,0,0,-0.3742,-0.3893,-0.3926,-0.3971,-0.4078,-0.4181,-0.4175,-0.4216,-0.417,-0.4128,-0.4046,-0.4015,-0.3957,-0.3904,-0.3887,-0.3809,-0.3785,-0.3786,-0.3808,-0.3816,-0.3824,-0.3635,-0.3775,0,0,0,0,0,-0.3726,-0.3769,-0.3926,-0.3962,-0.4008,-0.41,-0.4137,-0.4169,-0.4181,-0.4157,-0.4111,-0.4039,-0.3974,-0.391,-0.3866,-0.3811,-0.3697,-0.3785,-0.3792,-0.3798,-0.3638,-0.3536,-0.3515,-0.3744,-0.3744,-0.3744,0,0,-0.3689,-0.3774,-0.38,-0.3935,-0.3995,-0.3997,-0.4102,-0.4171,-0.4127,-0.4132,-0.4035,-0.4071,-0.3978,-0.3921,-0.3887,-0.3853,-0.3698,-0.3805,-0.3809,-0.3641,-0.3538,-0.3514,-0.3492,-0.3748,-0.3747,-0.3746,0,0,-0.3583,-0.3704,-0.3665,-0.3746,-0.3869,-0.3942,-0.3969,-0.4096,-0.409,-0.4081,-0.4067,-0.4064,-0.3995,-0.3915,-0.3855,-0.3872,-0.3764,-0.3924,-0.3755,-0.3665,-0.3641,-0.3618,-0.3524,-0.3492,-0.3897,-0.3897,-0.3897,0,-0.35,-0.3498,-0.3678,-0.3645,-0.3691,-0.3899,-0.3856,-0.3889,-0.3979,-0.3967,-0.4025,-0.3965,-0.3939,-0.3789,-0.3802,-0.3863,-0.3806,-0.3728,-0.3661,-0.3636,-0.3612,-0.352,-0.3484,-0.3899,-0.3899,-0.3899,-0.3899,0,-0.3318,-0.3344,-0.3342,-0.3359,-0.3436,-0.3473,-0.359,-0.3643,-0.372,-0.3761,-0.3738,-0.377,-0.3705,-0.377,-0.3754,-0.3612,-0.3633,-0.371,-0.3614,-0.3588,-0.3498,-0.346,-0.3902,-0.3901,-0.3901,-0.39,0,0,-0.3049,-0.318,-0.3169,-0.3178,-0.3305,-0.3366,-0.3328,-0.3375,-0.3331,-0.344,-0.3353,-0.3347,-0.3449,-0.3386,-0.3468,-0.3381,-0.3247,-0.3451,-0.3447,-0.3305,-0.3033,-0.2954,-0.2905,-0.3337,-0.3329,-0.3323,-0.3066,0,-0.2831,-0.2766,-0.2873,-0.2824,-0.2829,-0.302,-0.2976,-0.3051,-0.3137,-0.3125,-0.3178,-0.3155,-0.3276,-0.3309,-0.3229,-0.3272,-0.3133,-0.3304,-0.3113,-0.3103,-0.2994,-0.2852,-0.2765,-0.2517,-0.3028,-0.3021,-0.3016,0,-0.2563,-0.2588,-0.2513,-0.2635,-0.2641,-0.2622,-0.2685,-0.2684,-0.272,-0.2786,-0.279,-0.2879,-0.2797,-0.2934,-0.2801,-0.2926,-0.2892,-0.2908,-0.2902,-0.2732,-0.2945,-0.2614,-0.2427,-0.2443,-0.2957,-0.2961,-0.2966,0,-0.2327,-0.234,-0.2302,-0.233,-0.2454,-0.2438,-0.2496,-0.2565,-0.2606,-0.2583,-0.2622,-0.2558,-0.2581,-0.2506,-0.2576,-0.2679,-0.2414,-0.2591,-0.2439,-0.2439,-0.225,-0.2243,-0.1971,-0.2335,-0.2336,-0.2336,-0.2337,0,-0.21,-0.2073,-0.2193,-0.2182,-0.2153,-0.2269,-0.225,-0.2308,-0.2362,-0.2343,-0.2441,-0.24,-0.2475,-0.2411,-0.2419,-0.2285,-0.2285,-0.2263,-0.2306,-0.2276,-0.2274,-0.219,-0.2254,-0.2327,-0.2329,-0.2331,-0.2332,0,-0.1908,-0.197,-0.1954,-0.2033,-0.2071,-0.2056,-0.2215,-0.2218,-0.226,-0.2232,-0.223,-0.2276,-0.2177,-0.2213,-0.2103,-0.2102,-0.1935,-0.1922,-0.1876,-0.1912,-0.1805,-0.1876,-0.1501,-0.1458,-0.1676,-0.1672,-0.1668,0,-0.1824,-0.1784,-0.1867,-0.1914,-0.1966,-0.2008,-0.2074,-0.217,-0.2175,-0.2132,-0.2079,-0.2011,-0.1898,-0.1737,-0.1719,-0.1609,-0.1699,-0.1463,-0.1589,-0.1625,-0.174,-0.1828,-0.183,-0.1406,-0.1401,-0.1396,-0.1393,0,-0.1675,-0.1693,-0.1722,-0.1817,-0.1882,-0.1891,-0.1941,-0.1946,-0.197,-0.1898,-0.1689,-0.1576,-0.1497,-0.1356,-0.1304,-0.1261,-0.1433,-0.1363,-0.1392,-0.1394,-0.1466,-0.1511,-0.1789,-0.1352,-0.1356,-0.1359,-0.1361,-0.1363,-0.1583,-0.159,-0.1645,-0.1726,-0.1761,-0.1654,-0.1601,-0.1592,-0.146,-0.1266,-0.1254,-0.1016,-0.105,-0.0967,-0.0952,-0.097,-0.1086,-0.0991,-0.1044,-0.1108,-0.1098,-0.125,-0.0895,-0.0896,-0.0897,-0.0898,-0.0899,0,-0.1476,-0.1511,-0.1587,-0.158,-0.1492,-0.1541,-0.1441,-0.1317,-0.1043,-0.093,-0.0687,-0.0491,-0.0465,-0.0603,-0.0713,-0.0698,-0.0746,-0.071,-0.0826,-0.0825,-0.0917,-0.0943,-0.059,-0.059,-0.059,-0.059,-0.059,-0.059,-0.1433,-0.1461,-0.1511,-0.1309,-0.1259,-0.1021,-0.0888,-0.0712,-0.0586,-0.03,-0.0159,-0.0107,-0.0267,-0.0486,-0.0624,-0.0618,-0.0668,-0.0608,-0.0673,-0.0807,-0.0841,-0.0873,-0.0909,-0.0554,-0.0554,-0.0558,-0.0558,-0.0558]},{"header":{"parameterUnit":"m.s-1","parameterCategory":2,"la1":30.2991,"la2":30.254,"lo1":-89.0895,"lo2":-89.0444,"dx":0.0017,"dy":0.0017,"nx":28,"ny":28,"refTime":"2022-12-12T03:00:00:Z","depth":"0","parameterNumber":3,"parameterNumberName":"V-component_of_CURRENTS"},"data":[0,0,0,0,0,0,0,0,0,0,0,0,0,0,0,0,0,0,0,0,0,0,0,0,0,0,0,0,0,0,0,0,0,0,0,0,0,0,0,0,0,0,0,0,0,0,0,0,0,0,0,0,0,0,0,0,0,0,0.0161,0.0164,0,0.0352,0.0353,0.0354,0.0459,0.046,0.0462,0.0463,0.0605,0.0607,0.061,0,0,0,0,0,0,0,0,0,0,0,0,0,-0.0163,-0.0158,0.016,0.0164,0.0168,0.0351,0.0353,0.0354,0.0459,0.046,0.0462,0.0464,0.0604,0.0607,0.061,0,0,0,0,0,0,0,0,0,0,0,0,0,-0.0015,-0.0157,0.016,0.0252,0.0263,0.0351,0.0353,0.0354,0.0458,0.046,0.0463,0.0465,0.0603,0.0607,0.061,0.0587,0,0,0.0621,0.0623,0,0,0,0,0,0,0,0,-0.0023,-0.0005,0.0234,0.0246,0.0258,0.0395,0.0292,0.0435,0.0458,0.037,0.0463,0.0466,0.0537,0.0547,0.0559,0.0594,0.06,0.0622,0.0624,0.0625,0.0626,0,0,0,0,0,0,0,-0.0034,-0.0013,0.0222,0.0238,0.0253,0.0268,0.029,0.0318,0.0427,0.0378,0.0389,0.0431,0.0542,0.0555,0.0563,0.0602,0.0622,0.0625,0.0627,0.0628,0.0659,0.0657,0,0,0,0,0,0,-0.0029,-0.0022,0.0217,0.023,0.0135,0.0273,0.0297,0.0338,0.0429,0.0449,0.0429,0.0435,0.0548,0.0559,0.0569,0.0599,0.0625,0.0629,0.0631,0.066,0.0658,0.0657,0,0,0,0,0,0,-0.0037,-0.001,0.0209,0.0118,0.0149,0.0278,0.0322,0.0341,0.0364,0.0471,0.0487,0.0435,0.055,0.0564,0.0585,0.0604,0.063,0.0634,0.0662,0.066,0.0658,0.0626,0,0,0,0,0,0,-0.0048,-0.0015,-0.0021,0.0119,0.0155,0.0243,0.0322,0.0344,0.0393,0.0402,0.0481,0.0496,0.0553,0.0579,0.0589,0.0609,0.0636,0.0663,0.0661,0.0658,0.0629,0.0623,0.0618,0,0,0,0,0,-0.006,-0.0081,-0.0023,0.0006,0.0155,0.0243,0.0259,0.035,0.039,0.0379,0.0438,0.0494,0.0571,0.058,0.0592,0.0614,0.0665,0.0661,0.0659,0.0631,0.0624,0.0619,0,0,0,0,0,0,-0.0243,-0.0066,-0.0,0.003,0.0129,0.0266,0.0258,0.0336,0.0373,0.0374,0.047,0.0488,0.0515,0.0548,0.0557,0.0609,0.0629,0.0628,0.0604,0.0598,0.0593,0.0562,0.0639,0,0,0,0,0,-0.0277,-0.024,-0.0069,-0.0054,-0.0008,0.0122,0.016,0.0235,0.0312,0.0331,0.0399,0.0456,0.0507,0.0539,0.0571,0.0594,0.06,0.0613,0.0608,0.0604,0.0582,0.0605,0.06,0.0647,0.0647,0.0647,0,0,-0.0344,-0.0243,-0.0223,-0.009,-0.0015,0.0032,0.0145,0.0197,0.0235,0.0336,0.0362,0.0429,0.0501,0.0536,0.0552,0.0573,0.0589,0.06,0.0597,0.0577,0.0601,0.0597,0.0593,0.0645,0.0646,0.0646,0,0,-0.0448,-0.0369,-0.0361,-0.0285,-0.0155,-0.0067,-0.0051,0.0088,0.0139,0.0189,0.0276,0.0353,0.0411,0.0495,0.054,0.0517,0.055,0.0523,0.0493,0.0516,0.0513,0.051,0.0498,0.0495,0.0536,0.0536,0.0536,0,-0.0541,-0.0478,-0.0357,-0.0325,-0.0273,-0.0115,-0.0098,-0.0028,0.0098,0.0135,0.018,0.0313,0.0401,0.0474,0.0489,0.0513,0.05,0.0523,0.0512,0.0509,0.0507,0.0495,0.0492,0.0534,0.0534,0.0534,0.0534,0,-0.0597,-0.0565,-0.0566,-0.0456,-0.0407,-0.037,-0.0226,-0.0185,-0.0091,0.0008,0.0091,0.0216,0.0303,0.0362,0.0432,0.0472,0.0456,0.0495,0.0533,0.0501,0.0489,0.0487,0.0531,0.0532,0.0532,0.0533,0,0,-0.0718,-0.0625,-0.0616,-0.0588,-0.0463,-0.0414,-0.0382,-0.0273,-0.0235,-0.011,-0.0061,0.0099,0.0187,0.0241,0.0354,0.0413,0.0426,0.0444,0.0446,0.0438,0.0427,0.0499,0.0503,0.0453,0.0452,0.0452,0.0421,0,-0.0783,-0.0769,-0.0698,-0.0689,-0.0658,-0.0543,-0.0515,-0.0413,-0.0311,-0.0239,-0.0073,0.001,0.0135,0.0196,0.0269,0.0388,0.0416,0.0427,0.0451,0.0451,0.0527,0.0503,0.0555,0.0539,0.0418,0.0417,0.0417,0,-0.081,-0.0795,-0.0809,-0.0759,-0.0738,-0.0724,-0.0639,-0.0595,-0.0467,-0.0392,-0.0283,-0.0161,-0.0025,0.0072,0.0227,0.0216,0.0297,0.0387,0.0388,0.0462,0.0519,0.0553,0.0539,0.0625,0.0413,0.0413,0.0414,0,-0.0875,-0.0852,-0.087,-0.0849,-0.0784,-0.0785,-0.0748,-0.0642,-0.0569,-0.0493,-0.0411,-0.0297,-0.0163,-0.0085,0.016,0.0158,0.031,0.033,0.0452,0.0456,0.0511,0.0522,0.0593,0.0382,0.0382,0.0382,0.0382,0,-0.0917,-0.0923,-0.0906,-0.0905,-0.0929,-0.086,-0.0843,-0.0802,-0.0689,-0.0539,-0.0486,-0.0321,-0.0188,-0.0036,0.0079,0.028,0.0242,0.0426,0.0458,0.0499,0.0509,0.0596,0.0632,0.0381,0.0381,0.0381,0.0381,0,-0.0959,-0.0949,-0.0965,-0.0952,-0.0954,-0.0966,-0.0886,-0.0797,-0.0748,-0.0558,-0.0519,-0.0334,-0.0151,-0.0027,0.0146,0.0246,0.0445,0.0447,0.0476,0.0513,0.0674,0.0706,0.0772,0.0855,0.0508,0.051,0.0511,0,-0.0974,-0.099,-0.1014,-0.1009,-0.1007,-0.0999,-0.0914,-0.0841,-0.0679,-0.0473,-0.0312,-0.0171,0.0063,0.0246,0.0356,0.0451,0.0554,0.058,0.0607,0.0681,0.0738,0.0746,0.0811,0.0645,0.0647,0.0649,0.0651,0,-0.1009,-0.1023,-0.105,-0.1043,-0.0989,-0.0873,-0.0739,-0.0628,-0.0412,-0.0242,0.0087,0.0222,0.0357,0.0499,0.0538,0.0623,0.0653,0.0625,0.0702,0.0847,0.0857,0.0954,0.0639,0.0668,0.0667,0.0665,0.0664,0.0664,-0.1037,-0.1079,-0.109,-0.1055,-0.0938,-0.0659,-0.0529,-0.0285,-0.0019,0.034,0.0445,0.0692,0.0722,0.0769,0.0801,0.0855,0.0821,0.0915,0.0937,0.0929,0.1048,0.0761,0.0844,0.0843,0.0843,0.0842,0.0842,0,-0.1057,-0.1067,-0.1059,-0.0947,-0.069,-0.0646,-0.0302,-0.0082,0.0309,0.059,0.0881,0.113,0.1151,0.1096,0.1089,0.1158,0.1168,0.1208,0.1221,0.127,0.1015,0.1064,0.12,0.12,0.12,0.12,0.12,0.12,-0.1073,-0.1093,-0.1069,-0.07,-0.0537,-0.0149,0.0087,0.0385,0.0625,0.1059,0.1273,0.1412,0.1409,0.1376,0.1391,0.1413,0.1519,0.1495,0.1551,0.1364,0.1338,0.1313,0.1368,0.1566,0.1567,0.1814,0.1816,0.1818]}],[{"header":{"parameterUnit":"m.s-1","parameterCategory":2,"la1":30.2991,"la2":30.254,"lo1":-89.0895,"lo2":-89.0444,"dx":0.0017,"dy":0.0017,"nx":28,"ny":28,"refTime":"2022-12-12T03:00:00:Z","depth":"2","parameterNumber":2,"parameterNumberName":"U-component_of_CURRENTS"},"data":[0,0,0,0,0,0,0,0,0,0,0,0,0,0,0,0,0,0,0,0,0,0,0,0,0,0,0,0,0,0,0,0,0,0,0,0,0,0,0,0,0,0,0,0,0,0,0,0,0,0,0,0,0,0,0,0,0,0,-0.2418,-0.2418,0,-0.244,-0.244,-0.244,-0.2348,-0.2346,-0.2344,-0.2342,-0.2462,-0.2467,-0.2472,0,0,0,0,0,0,0,0,0,0,0,0,0,-0.2269,-0.2272,-0.2417,-0.2418,-0.2419,-0.244,-0.244,-0.244,-0.2348,-0.2346,-0.2343,-0.2341,-0.246,-0.2467,-0.2473,0,0,0,0,0,0,0,0,0,0,0,0,0,-0.2311,-0.2273,-0.2417,-0.2381,-0.2379,-0.244,-0.244,-0.2439,-0.2349,-0.2346,-0.2343,-0.234,-0.2458,-0.2466,-0.2474,-0.2584,0,0,-0.2497,-0.2501,0,0,0,0,0,0,0,0,-0.2308,-0.2315,-0.2386,-0.2384,-0.2381,-0.2394,-0.2432,-0.2495,-0.235,-0.2353,-0.2342,-0.2338,-0.2455,-0.2463,-0.2463,-0.259,-0.2595,-0.2498,-0.2503,-0.2506,-0.2508,0,0,0,0,0,0,0,-0.2306,-0.2314,-0.242,-0.2387,-0.2384,-0.2355,-0.2357,-0.2442,-0.2418,-0.2353,-0.2348,-0.2362,-0.2453,-0.2456,-0.2466,-0.2597,-0.2498,-0.2505,-0.2509,-0.2512,-0.2786,-0.2788,0,0,0,0,0,0,-0.2322,-0.2312,-0.2419,-0.2421,-0.2344,-0.2361,-0.2363,-0.2388,-0.2415,-0.2417,-0.2365,-0.2358,-0.2444,-0.2457,-0.247,-0.2496,-0.2506,-0.2513,-0.2518,-0.2783,-0.2786,-0.2789,0,0,0,0,0,0,-0.2319,-0.2332,-0.2418,-0.2371,-0.238,-0.2368,-0.2396,-0.239,-0.2407,-0.2424,-0.2426,-0.2389,-0.2442,-0.2459,-0.2542,-0.2504,-0.2517,-0.2524,-0.278,-0.2784,-0.2788,-0.2619,0,0,0,0,0,0,-0.2315,-0.2331,-0.2351,-0.2373,-0.2384,-0.2445,-0.2399,-0.2393,-0.2423,-0.2414,-0.2448,-0.2453,-0.2441,-0.253,-0.255,-0.2515,-0.253,-0.2777,-0.2782,-0.2787,-0.2621,-0.2616,-0.2612,0,0,0,0,0,-0.2309,-0.233,-0.2352,-0.2365,-0.2414,-0.2447,-0.2449,-0.2424,-0.2428,-0.243,-0.2458,-0.2453,-0.2574,-0.254,-0.2561,-0.2528,-0.2774,-0.278,-0.2786,-0.2623,-0.2617,-0.2613,0,0,0,0,0,0,-0.2258,-0.2325,-0.2348,-0.2386,-0.2421,-0.2433,-0.2439,-0.2457,-0.2484,-0.2487,-0.2501,-0.251,-0.2553,-0.2616,-0.2577,-0.2634,-0.2671,-0.2682,-0.254,-0.2536,-0.2531,-0.2451,-0.2536,0,0,0,0,0,-0.2273,-0.231,-0.2368,-0.2397,-0.2423,-0.2453,-0.2469,-0.2472,-0.2503,-0.2509,-0.2528,-0.2573,-0.26,-0.2627,-0.2667,-0.2734,-0.2726,-0.2734,-0.273,-0.2725,-0.2684,-0.2643,-0.2627,-0.2809,-0.2809,-0.2808,0,0,-0.2264,-0.2304,-0.2326,-0.2391,-0.2417,-0.2424,-0.2451,-0.2489,-0.2467,-0.2531,-0.2517,-0.2568,-0.2622,-0.2636,-0.2665,-0.2679,-0.268,-0.2732,-0.2725,-0.2688,-0.2647,-0.2627,-0.261,-0.2813,-0.2812,-0.2811,0,0,-0.2235,-0.2307,-0.2318,-0.2348,-0.2407,-0.2429,-0.2455,-0.2496,-0.2482,-0.2533,-0.253,-0.2551,-0.2656,-0.2607,-0.262,-0.2651,-0.2657,-0.2712,-0.2612,-0.2573,-0.2554,-0.2537,-0.2511,-0.2493,-0.2707,-0.2706,-0.2706,0,-0.222,-0.2243,-0.2323,-0.2326,-0.234,-0.2432,-0.2429,-0.2435,-0.2485,-0.2478,-0.2516,-0.2569,-0.2605,-0.2557,-0.2542,-0.2618,-0.2628,-0.2602,-0.2552,-0.2536,-0.2521,-0.2499,-0.2481,-0.2699,-0.27,-0.2701,-0.2701,0,-0.2181,-0.2204,-0.2214,-0.2248,-0.2275,-0.2302,-0.2337,-0.2355,-0.2398,-0.2401,-0.2404,-0.2439,-0.2458,-0.2477,-0.2513,-0.2436,-0.2487,-0.2536,-0.2527,-0.2489,-0.2473,-0.2457,-0.2688,-0.2691,-0.2693,-0.2695,0,0,-0.2127,-0.218,-0.2178,-0.2186,-0.2245,-0.2267,-0.2246,-0.2255,-0.2248,-0.2274,-0.2242,-0.224,-0.2277,-0.2294,-0.233,-0.2286,-0.2185,-0.2369,-0.237,-0.2275,-0.2116,-0.2031,-0.2007,-0.2231,-0.2228,-0.2225,-0.2144,0,-0.2071,-0.2064,-0.2099,-0.2085,-0.2095,-0.2156,-0.2133,-0.2151,-0.2186,-0.2182,-0.2176,-0.2186,-0.2202,-0.2232,-0.2171,-0.2217,-0.2139,-0.2203,-0.2226,-0.2226,-0.2097,-0.1982,-0.1854,-0.176,-0.2129,-0.2126,-0.2125,0,-0.1997,-0.2016,-0.1993,-0.2028,-0.2039,-0.2033,-0.2052,-0.2046,-0.2051,-0.2082,-0.206,-0.2101,-0.2031,-0.2082,-0.2,-0.2059,-0.2048,-0.2057,-0.2056,-0.201,-0.2108,-0.1867,-0.1718,-0.2098,-0.21,-0.2102,-0.2104,0,-0.1913,-0.1931,-0.1917,-0.1925,-0.1974,-0.1963,-0.199,-0.2008,-0.201,-0.2016,-0.204,-0.1987,-0.1987,-0.1944,-0.1945,-0.1992,-0.1873,-0.1951,-0.1831,-0.1829,-0.1733,-0.1726,-0.1826,-0.1826,-0.1827,-0.1827,-0.1827,0,-0.1832,-0.1819,-0.188,-0.1872,-0.1866,-0.1916,-0.1907,-0.193,-0.1958,-0.1946,-0.1977,-0.1947,-0.1956,-0.1911,-0.1905,-0.1796,-0.1824,-0.175,-0.1768,-0.168,-0.167,-0.1992,-0.2013,-0.1824,-0.1824,-0.1825,-0.1826,0,-0.1727,-0.1764,-0.1757,-0.1808,-0.1821,-0.1817,-0.187,-0.1863,-0.191,-0.1895,-0.1898,-0.1909,-0.1839,-0.1818,-0.1768,-0.1731,-0.1664,-0.1611,-0.1507,-0.151,-0.1664,-0.1678,-0.1469,-0.1464,-0.1461,-0.1457,-0.1455,0,-0.167,-0.1654,-0.1701,-0.1698,-0.1717,-0.1734,-0.1739,-0.1816,-0.181,-0.1846,-0.1814,-0.1778,-0.1705,-0.1591,-0.1508,-0.1416,-0.1516,-0.1267,-0.1287,-0.157,-0.1611,-0.1632,-0.165,-0.1122,-0.1117,-0.1112,-0.1109,0,-0.1566,-0.1583,-0.1593,-0.1583,-0.1587,-0.1597,-0.1613,-0.1617,-0.1684,-0.1689,-0.1665,-0.1629,-0.1501,-0.1332,-0.1209,-0.1155,-0.1279,-0.1176,-0.1461,-0.1232,-0.1235,-0.128,-0.131,-0.1071,-0.1075,-0.1078,-0.108,-0.1081,-0.1484,-0.1468,-0.1468,-0.1448,-0.1454,-0.1428,-0.14,-0.1431,-0.1424,-0.1399,-0.1464,-0.1362,-0.1317,-0.1036,-0.0949,-0.0874,-0.0972,-0.0957,-0.0973,-0.0993,-0.0966,-0.0962,-0.0744,-0.0746,-0.0747,-0.0748,-0.075,0,-0.1363,-0.135,-0.1326,-0.1297,-0.1243,-0.129,-0.1278,-0.1232,-0.1186,-0.1183,-0.1162,-0.101,-0.086,-0.0809,-0.0614,-0.0579,-0.0615,-0.0572,-0.0629,-0.0664,-0.0695,-0.0658,-0.0352,-0.0351,-0.035,-0.035,0,0,-0.1297,-0.1229,-0.1212,-0.1079,-0.1059,-0.0958,-0.0931,-0.0902,-0.0873,-0.0803,-0.0753,-0.0808,-0.0779,-0.0587,-0.052,-0.0398,-0.0539,-0.0373,-0.0684,-0.0784,-0.0815,-0.0895,-0.0872,0,0,0,0,0]},{"header":{"parameterUnit":"m.s-1","parameterCategory":2,"la1":30.2991,"la2":30.254,"lo1":-89.0895,"lo2":-89.0444,"dx":0.0017,"dy":0.0017,"nx":28,"ny":28,"refTime":"2022-12-12T03:00:00:Z","depth":"2","parameterNumber":3,"parameterNumberName":"V-component_of_CURRENTS"},"data":[0,0,0,0,0,0,0,0,0,0,0,0,0,0,0,0,0,0,0,0,0,0,0,0,0,0,0,0,0,0,0,0,0,0,0,0,0,0,0,0,0,0,0,0,0,0,0,0,0,0,0,0,0,0,0,0,0,0,-0.0395,-0.0395,0,-0.0406,-0.0406,-0.0407,-0.0389,-0.0388,-0.0387,-0.0386,-0.0114,-0.0108,-0.0102,0,0,0,0,0,0,0,0,0,0,0,0,0,-0.0458,-0.0457,-0.0395,-0.0395,-0.0395,-0.0406,-0.0406,-0.0407,-0.0389,-0.0388,-0.0387,-0.0385,-0.0116,-0.0109,-0.0102,0,0,0,0,0,0,0,0,0,0,0,0,0,-0.0451,-0.0457,-0.0395,-0.0383,-0.0382,-0.0405,-0.0406,-0.0407,-0.039,-0.0388,-0.0386,-0.0385,-0.0119,-0.011,-0.0101,-0.0076,0,0,-0.0072,-0.0068,0,0,0,0,0,0,0,0,-0.0451,-0.0449,-0.0385,-0.0384,-0.0382,-0.039,-0.0329,-0.028,-0.039,-0.0392,-0.0386,-0.0384,-0.0178,-0.0164,-0.0181,-0.0063,-0.0052,-0.0071,-0.0066,-0.0062,-0.0059,0,0,0,0,0,0,0,-0.0452,-0.0449,-0.0405,-0.0385,-0.0383,-0.041,-0.0407,-0.0322,-0.0293,-0.0392,-0.0389,-0.0383,-0.0176,-0.0191,-0.0173,-0.0048,-0.0072,-0.0063,-0.0058,-0.0054,0.0349,0.0354,0,0,0,0,0,0,-0.0436,-0.0449,-0.0404,-0.0405,-0.0408,-0.041,-0.0407,-0.0393,-0.03,-0.0285,-0.0384,-0.0382,-0.0207,-0.0185,-0.0163,-0.0062,-0.0062,-0.0053,-0.0048,0.0344,0.035,0.0356,0,0,0,0,0,0,-0.0437,-0.0432,-0.0404,-0.0424,-0.0421,-0.0409,-0.0395,-0.0394,-0.0386,-0.0296,-0.0276,-0.0373,-0.0205,-0.0176,-0.006,-0.0053,-0.0049,-0.004,0.0338,0.0346,0.0353,0.0101,0,0,0,0,0,0,-0.0439,-0.0432,-0.0429,-0.0422,-0.0419,-0.0398,-0.0396,-0.0396,-0.0383,-0.038,-0.028,-0.0256,-0.0202,-0.0075,-0.0051,-0.004,-0.0033,0.0332,0.0342,0.0351,0.0103,0.0099,0.0096,0,0,0,0,0,-0.0441,-0.0445,-0.0429,-0.0424,-0.0411,-0.0397,-0.0398,-0.0389,-0.0384,-0.0378,-0.0303,-0.0258,0.0007,-0.0066,-0.0039,-0.0025,0.0327,0.0339,0.035,0.0105,0.01,0.0096,0,0,0,0,0,0,-0.0479,-0.0442,-0.0425,-0.0418,-0.0395,-0.0391,-0.0397,-0.0382,-0.0332,-0.032,-0.0235,-0.0205,-0.0105,0.0014,-0.0068,0.0147,0.0193,0.0211,-0.0001,-0.0005,-0.0008,-0.0023,-0.0025,0,0,0,0,0,-0.0481,-0.0473,-0.0434,-0.0432,-0.0418,-0.0404,-0.0401,-0.0387,-0.0341,-0.0322,-0.0254,-0.0135,-0.0039,0.0036,0.0131,0.0236,0.0294,0.0296,0.0292,0.0287,0.0311,0.0347,0.0343,0.0394,0.0394,0.0393,0,0,-0.0499,-0.0478,-0.0474,-0.0439,-0.043,-0.0413,-0.0399,-0.0389,-0.0373,-0.0291,-0.0246,-0.0172,-0.0014,0.0074,0.0141,0.0175,0.0311,0.0302,0.0293,0.0322,0.0358,0.0351,0.0344,0.0402,0.04,0.0399,0,0,-0.0526,-0.0503,-0.0497,-0.0474,-0.0441,-0.0428,-0.0414,-0.0391,-0.0374,-0.0313,-0.0254,-0.0178,-0.0007,0.0061,0.0135,0.0201,0.0264,0.0281,0.0256,0.0287,0.0278,0.0272,0.0313,0.0313,0.0303,0.0303,0.0303,0,-0.0549,-0.0527,-0.0496,-0.0479,-0.0463,-0.0426,-0.0412,-0.0395,-0.0339,-0.031,-0.0295,-0.0111,-0.0021,0.0084,0.0106,0.0173,0.0222,0.0212,0.0263,0.0259,0.0256,0.0301,0.0303,0.0292,0.0294,0.0295,0.0296,0,-0.056,-0.0541,-0.0539,-0.0498,-0.0477,-0.0464,-0.0417,-0.0394,-0.0365,-0.0337,-0.0251,-0.0168,-0.0042,-0.0003,0.0065,0.0129,0.0174,0.0201,0.0218,0.0232,0.0283,0.0289,0.0277,0.0281,0.0284,0.0287,0,0,-0.0613,-0.0557,-0.0556,-0.0536,-0.0483,-0.047,-0.0433,-0.0383,-0.0357,-0.031,-0.027,-0.0157,-0.0126,-0.0032,0.0038,0.0076,0.0058,0.0141,0.0147,0.0087,0.0139,0.0158,0.0168,0.0069,0.007,0.007,0.0165,0,-0.063,-0.0611,-0.057,-0.055,-0.0532,-0.0478,-0.0448,-0.0398,-0.035,-0.0305,-0.0232,-0.0166,-0.0128,-0.0089,-0.0054,0.0044,0.0073,0.0032,0.0225,0.0232,0.0165,0.0175,0.0149,0.0232,0.0172,0.0173,0.0174,0,-0.0645,-0.063,-0.0617,-0.0565,-0.0551,-0.0535,-0.0476,-0.0443,-0.036,-0.0319,-0.0256,-0.0193,-0.0116,-0.0104,0.0022,-0.0004,0.0065,0.0119,0.0123,0.0242,0.0264,0.0232,0.0247,0.0186,0.0185,0.0184,0.0183,0,-0.07,-0.0658,-0.0654,-0.0638,-0.0578,-0.0561,-0.053,-0.0453,-0.0419,-0.0337,-0.0299,-0.0208,-0.0154,-0.0074,0.0047,0.0039,0.0175,0.0175,0.0254,0.0256,0.0332,0.034,0.0249,0.0248,0.0248,0.0248,0.0248,0,-0.073,-0.0722,-0.0685,-0.0684,-0.0676,-0.0614,-0.0588,-0.0537,-0.0462,-0.0419,-0.0322,-0.0266,-0.0145,-0.0047,0.0044,0.0176,0.0172,0.026,0.0283,0.0251,0.025,0.0309,0.0315,0.0252,0.0251,0.025,0.0249,0,-0.0779,-0.0756,-0.0751,-0.0712,-0.0703,-0.0701,-0.064,-0.0617,-0.0535,-0.0477,-0.0454,-0.0302,-0.0164,-0.004,0.0113,0.0181,0.0295,0.034,0.03,0.0317,0.0356,0.035,0.0437,0.0439,0.044,0.0441,0.0442,0,-0.0794,-0.0803,-0.0794,-0.0801,-0.0787,-0.077,-0.0757,-0.0676,-0.0646,-0.0496,-0.0476,-0.0313,-0.0195,0.0043,0.0198,0.0359,0.0351,0.0416,0.0392,0.0363,0.0376,0.0368,0.036,0.0394,0.0394,0.0395,0.0395,0,-0.0827,-0.0836,-0.084,-0.0861,-0.0865,-0.0856,-0.0829,-0.0814,-0.0711,-0.0648,-0.0519,-0.0407,-0.0137,0.0058,0.0277,0.0359,0.0385,0.0428,0.0417,0.0344,0.0328,0.0339,0.0332,0.0398,0.0398,0.0397,0.0397,0.0397,-0.0854,-0.0877,-0.0892,-0.0906,-0.0918,-0.0923,-0.0904,-0.0868,-0.0819,-0.068,-0.0592,-0.0392,-0.0174,0.0157,0.0306,0.0456,0.0453,0.0469,0.0465,0.0462,0.0433,0.042,0.0503,0.0503,0.0503,0.0504,0.0504,0,-0.0873,-0.0897,-0.0924,-0.0939,-0.0954,-0.095,-0.093,-0.0886,-0.0827,-0.0697,-0.0577,-0.0344,-0.0116,0.0131,0.0378,0.0501,0.0481,0.0508,0.0457,0.0453,0.045,0.0418,0.0486,0.0486,0.0487,0.0487,0,0,-0.0883,-0.0916,-0.0929,-0.0954,-0.0964,-0.0953,-0.0937,-0.0874,-0.0771,-0.0628,-0.048,-0.034,-0.0061,0.0093,0.0256,0.0394,0.0385,0.0396,0.0396,0.0312,0.0307,0.0413,0.0359,0,0,0,0,0]}],[{"header":{"parameterUnit":"m.s-1","parameterCategory":2,"la1":30.2991,"la2":30.254,"lo1":-89.0895,"lo2":-89.0444,"dx":0.0017,"dy":0.0017,"nx":28,"ny":28,"refTime":"2022-12-12T03:00:00:Z","depth":"4","parameterNumber":2,"parameterNumberName":"U-component_of_CURRENTS"},"data":[0,0,0,0,0,0,0,0,0,0,0,0,0,0,0,0,0,0,0,0,0,0,0,0,0,0,0,0,0,0,0,0,0,0,0,0,0,0,0,0,0,0,0,0,0,0,0,0,0,0,0,0,0,0,0,0,0,0,-0.1374,-0.1373,0,-0.1367,-0.1367,-0.1367,-0.1364,-0.1364,-0.1364,-0.1363,-0.1368,-0.1369,-0.1369,0,0,0,0,0,0,0,0,0,0,0,0,0,-0.1356,-0.1357,-0.1374,-0.1373,-0.1373,-0.1367,-0.1367,-0.1367,-0.1364,-0.1364,-0.1364,-0.1363,-0.1368,-0.1369,-0.1369,0,0,0,0,0,0,0,0,0,0,0,0,0,-0.136,-0.1357,-0.1374,-0.1369,-0.1369,-0.1367,-0.1367,-0.1367,-0.1364,-0.1364,-0.1364,-0.1363,-0.1368,-0.1369,-0.1369,-0.1378,0,0,-0.1371,-0.1371,0,0,0,0,0,0,0,0,-0.136,-0.1361,-0.137,-0.1369,-0.1369,-0.1364,-0.1362,-0.137,-0.1364,-0.1368,-0.1363,-0.1363,-0.1367,-0.1367,-0.137,-0.1378,-0.1378,-0.1371,-0.1371,-0.1371,-0.1371,0,0,0,0,0,0,0,-0.136,-0.1361,-0.1373,-0.137,-0.1369,-0.1357,-0.1358,-0.1364,-0.1371,-0.1368,-0.1367,-0.1363,-0.1367,-0.1369,-0.137,-0.1378,-0.1371,-0.1371,-0.1371,-0.1371,-0.1399,-0.14,0,0,0,0,0,0,-0.1358,-0.1361,-0.1373,-0.1373,-0.1361,-0.1358,-0.1359,-0.1368,-0.1371,-0.137,-0.1363,-0.1363,-0.1369,-0.1369,-0.137,-0.1396,-0.1371,-0.1371,-0.1372,-0.1399,-0.1399,-0.14,0,0,0,0,0,0,-0.1358,-0.136,-0.1374,-0.1364,-0.1365,-0.1359,-0.1368,-0.1368,-0.1391,-0.1367,-0.1367,-0.1389,-0.1368,-0.1369,-0.1384,-0.1395,-0.1372,-0.1372,-0.1398,-0.1399,-0.14,-0.1437,0,0,0,0,0,0,-0.1358,-0.136,-0.1382,-0.1365,-0.1365,-0.1376,-0.1368,-0.1368,-0.1386,-0.1387,-0.1389,-0.1388,-0.1368,-0.1383,-0.1384,-0.1395,-0.1372,-0.1398,-0.1399,-0.1399,-0.1435,-0.1439,-0.1442,0,0,0,0,0,-0.1357,-0.1381,-0.1383,-0.1385,-0.139,-0.1376,-0.1376,-0.1371,-0.1388,-0.1394,-0.1399,-0.1389,-0.1389,-0.1384,-0.1385,-0.1397,-0.1397,-0.1398,-0.1399,-0.1434,-0.1438,-0.1442,0,0,0,0,0,0,-0.138,-0.1382,-0.1384,-0.1408,-0.1394,-0.1375,-0.1393,-0.1391,-0.1402,-0.1418,-0.1401,-0.1399,-0.1409,-0.1404,-0.1399,-0.1406,-0.139,-0.1391,-0.1415,-0.142,-0.1423,-0.1413,-0.1373,0,0,0,0,0,-0.1397,-0.1422,-0.1404,-0.1424,-0.1427,-0.1419,-0.1423,-0.1417,-0.1416,-0.1423,-0.1415,-0.1416,-0.1412,-0.1418,-0.1408,-0.1426,-0.1415,-0.1431,-0.1435,-0.1438,-0.143,-0.1449,-0.1453,-0.1403,-0.1403,-0.1403,0,0,-0.1412,-0.1416,-0.1431,-0.1432,-0.1434,-0.1433,-0.1422,-0.1435,-0.1434,-0.1422,-0.1435,-0.1428,-0.1418,-0.1422,-0.1427,-0.1423,-0.1443,-0.1439,-0.1442,-0.1432,-0.145,-0.1455,-0.1459,-0.1404,-0.1404,-0.1404,0,0,-0.1435,-0.1462,-0.1482,-0.1479,-0.148,-0.1469,-0.1479,-0.1468,-0.1469,-0.1478,-0.1462,-0.1459,-0.1468,-0.1443,-0.1439,-0.146,-0.1457,-0.1471,-0.1488,-0.1507,-0.1511,-0.1515,-0.1494,-0.1496,-0.1479,-0.1479,-0.1479,0,-0.1453,-0.1471,-0.1482,-0.1491,-0.1492,-0.149,-0.1495,-0.1495,-0.1484,-0.1489,-0.1488,-0.1491,-0.1469,-0.1473,-0.1465,-0.1466,-0.1475,-0.1475,-0.1512,-0.1516,-0.1519,-0.1497,-0.1498,-0.1481,-0.1481,-0.148,-0.148,0,-0.1469,-0.1494,-0.1508,-0.1521,-0.1525,-0.1532,-0.1523,-0.1533,-0.1543,-0.1534,-0.1545,-0.152,-0.1517,-0.1512,-0.1492,-0.1504,-0.1501,-0.1512,-0.1503,-0.1526,-0.1501,-0.1502,-0.1484,-0.1483,-0.1482,-0.1482,0,0,-0.1466,-0.1511,-0.1516,-0.1526,-0.1542,-0.1538,-0.1559,-0.1558,-0.1577,-0.1575,-0.1591,-0.1565,-0.156,-0.1552,-0.1533,-0.1539,-0.1544,-0.1539,-0.1539,-0.1519,-0.1575,-0.1439,-0.1426,-0.1586,-0.1586,-0.1587,-0.1544,0,-0.1467,-0.1494,-0.1516,-0.1536,-0.1542,-0.1561,-0.1575,-0.1584,-0.1595,-0.1607,-0.1602,-0.1603,-0.1577,-0.1578,-0.1582,-0.155,-0.1551,-0.1552,-0.1554,-0.1552,-0.1431,-0.1424,-0.1589,-0.1544,-0.1544,-0.1544,-0.1544,0,-0.1448,-0.1475,-0.1499,-0.1539,-0.1547,-0.1562,-0.1592,-0.1602,-0.1629,-0.1643,-0.1662,-0.1658,-0.1641,-0.1629,-0.1604,-0.162,-0.1595,-0.1576,-0.1575,-0.1433,-0.1417,-0.1519,-0.1545,-0.1545,-0.1545,-0.1545,-0.1545,0,-0.14,-0.145,-0.1472,-0.1483,-0.1532,-0.1556,-0.1581,-0.1615,-0.1621,-0.1664,-0.167,-0.1689,-0.1667,-0.1675,-0.1604,-0.1626,-0.1578,-0.1605,-0.146,-0.1449,-0.1571,-0.1568,-0.1599,-0.16,-0.16,-0.16,-0.16,0,-0.1357,-0.1376,-0.1458,-0.1465,-0.1493,-0.1541,-0.1566,-0.1599,-0.164,-0.1627,-0.1678,-0.165,-0.1683,-0.165,-0.1624,-0.1512,-0.1592,-0.1442,-0.1428,-0.1585,-0.1584,-0.157,-0.1568,-0.1598,-0.1598,-0.1599,-0.1599,0,-0.1279,-0.1336,-0.1364,-0.1443,-0.1465,-0.1483,-0.1542,-0.155,-0.1606,-0.1592,-0.1601,-0.1617,-0.1557,-0.1561,-0.1535,-0.1488,-0.1433,-0.138,-0.1509,-0.1507,-0.1293,-0.1293,-0.1227,-0.1222,-0.1218,-0.1214,-0.1211,0,-0.1236,-0.1247,-0.1334,-0.1346,-0.1382,-0.1423,-0.1437,-0.1515,-0.1506,-0.153,-0.1493,-0.1474,-0.1459,-0.1312,-0.1343,-0.1294,-0.128,-0.1263,-0.1305,-0.1261,-0.1255,-0.1262,-0.1267,-0.1204,-0.1203,-0.1202,-0.1201,0,-0.1154,-0.1201,-0.123,-0.1252,-0.1278,-0.1295,-0.1318,-0.1308,-0.1361,-0.143,-0.1342,-0.1308,-0.1229,-0.1203,-0.1162,-0.1135,-0.129,-0.1218,-0.1228,-0.1267,-0.1232,-0.1232,-0.1243,-0.1185,-0.1187,-0.1189,-0.119,0,-0.1094,-0.1093,-0.1129,-0.1133,-0.1161,-0.1134,-0.1178,-0.1152,-0.1164,-0.1209,-0.1165,-0.1153,-0.1188,-0.1113,-0.1074,-0.1034,-0.1033,-0.1035,-0.1055,-0.1072,-0.104,-0.0975,-0.0819,0,0,0,0,0,-0.1023,-0.0998,-0.0996,-0.099,-0.1013,-0.102,-0.1067,-0.1112,-0.1172,-0.1073,-0.1121,-0.1042,-0.0979,-0.0982,-0.0906,-0.0999,-0.1039,-0.0909,-0.1052,-0.1101,-0.1118,-0.1095,0,0,0,0,0,0,-0.0968,-0.0968,-0.0952,-0.0859,-0.0828,-0.0829,-0.0859,-0.0913,-0.0867,-0.0942,-0.0906,-0.0973,-0.092,-0.0984,-0.0875,-0.0878,-0.0948,-0.0923,-0.092,-0.1091,-0.1107,-0.1121,-0.1103,0,0,0,0,0]},{"header":{"parameterUnit":"m.s-1","parameterCategory":2,"la1":30.2991,"la2":30.254,"lo1":-89.0895,"lo2":-89.0444,"dx":0.0017,"dy":0.0017,"nx":28,"ny":28,"refTime":"2022-12-12T03:00:00:Z","depth":"4","parameterNumber":3,"parameterNumberName":"V-component_of_CURRENTS"},"data":[0,0,0,0,0,0,0,0,0,0,0,0,0,0,0,0,0,0,0,0,0,0,0,0,0,0,0,0,0,0,0,0,0,0,0,0,0,0,0,0,0,0,0,0,0,0,0,0,0,0,0,0,0,0,0,0,0,0,-0.0399,-0.0399,0,-0.0434,-0.0434,-0.0434,-0.0432,-0.0432,-0.0431,-0.0431,-0.0438,-0.0438,-0.0438,0,0,0,0,0,0,0,0,0,0,0,0,0,-0.0373,-0.0373,-0.0399,-0.0399,-0.04,-0.0434,-0.0434,-0.0434,-0.0432,-0.0432,-0.0431,-0.0431,-0.0437,-0.0438,-0.0439,0,0,0,0,0,0,0,0,0,0,0,0,0,-0.0391,-0.0373,-0.0399,-0.0405,-0.0406,-0.0434,-0.0434,-0.0434,-0.0432,-0.0432,-0.0431,-0.0431,-0.0437,-0.0438,-0.0439,-0.0452,0,0,-0.0441,-0.0441,0,0,0,0,0,0,0,0,-0.039,-0.0392,-0.0403,-0.0405,-0.0406,-0.043,-0.0427,-0.0439,-0.0432,-0.042,-0.0431,-0.0431,-0.0434,-0.0435,-0.044,-0.0452,-0.0452,-0.0441,-0.0441,-0.0441,-0.0442,0,0,0,0,0,0,0,-0.0389,-0.0391,-0.041,-0.0404,-0.0406,-0.0421,-0.0422,-0.043,-0.0427,-0.0421,-0.0421,-0.0429,-0.0434,-0.0439,-0.044,-0.0452,-0.0441,-0.0441,-0.0442,-0.0442,-0.0466,-0.0466,0,0,0,0,0,0,-0.0388,-0.0389,-0.0409,-0.0412,-0.0399,-0.0421,-0.0423,-0.0421,-0.0427,-0.0429,-0.0429,-0.0429,-0.0438,-0.0439,-0.044,-0.0432,-0.0441,-0.0442,-0.0442,-0.0465,-0.0466,-0.0466,0,0,0,0,0,0,-0.0387,-0.0389,-0.0408,-0.0404,-0.0408,-0.0422,-0.042,-0.0422,-0.0431,-0.0435,-0.0435,-0.0438,-0.0438,-0.0439,-0.0448,-0.0433,-0.0442,-0.0443,-0.0465,-0.0465,-0.0466,-0.0431,0,0,0,0,0,0,-0.0386,-0.0388,-0.0389,-0.0403,-0.0408,-0.0423,-0.0421,-0.0423,-0.0438,-0.0437,-0.0442,-0.0442,-0.0438,-0.0448,-0.0449,-0.0434,-0.0443,-0.0465,-0.0465,-0.0466,-0.0431,-0.043,-0.0428,0,0,0,0,0,-0.0384,-0.039,-0.0389,-0.0392,-0.0408,-0.0424,-0.0427,-0.0435,-0.0438,-0.0442,-0.0446,-0.0442,-0.0451,-0.0449,-0.045,-0.0435,-0.0465,-0.0465,-0.0466,-0.0432,-0.043,-0.0428,0,0,0,0,0,0,-0.0388,-0.0391,-0.039,-0.0398,-0.0409,-0.0424,-0.0433,-0.0441,-0.0448,-0.0447,-0.0449,-0.0449,-0.0452,-0.0456,-0.0454,-0.0445,-0.0456,-0.0457,-0.043,-0.0428,-0.0426,-0.0393,-0.0444,0,0,0,0,0,-0.0387,-0.039,-0.0397,-0.0408,-0.0408,-0.0421,-0.0431,-0.0436,-0.0446,-0.0449,-0.0455,-0.0458,-0.0456,-0.0453,-0.0459,-0.0457,-0.0429,-0.0449,-0.0447,-0.0445,-0.0422,-0.0366,-0.0356,-0.0468,-0.0468,-0.0467,0,0,-0.0397,-0.0399,-0.0403,-0.0409,-0.0415,-0.0411,-0.0425,-0.0439,-0.0433,-0.0449,-0.0447,-0.0459,-0.0458,-0.0452,-0.0452,-0.0451,-0.0404,-0.0446,-0.0444,-0.0421,-0.0366,-0.0354,-0.0344,-0.0468,-0.0468,-0.0468,0,0,-0.041,-0.041,-0.0409,-0.0409,-0.0417,-0.0419,-0.0423,-0.0436,-0.0435,-0.0441,-0.0445,-0.0443,-0.0455,-0.0437,-0.0431,-0.0426,-0.0403,-0.044,-0.0393,-0.0341,-0.033,-0.032,-0.0281,-0.0268,-0.043,-0.043,-0.043,0,-0.0421,-0.0415,-0.0416,-0.0408,-0.0407,-0.0418,-0.0412,-0.041,-0.0428,-0.0418,-0.0435,-0.0428,-0.0436,-0.0399,-0.0397,-0.0416,-0.039,-0.0398,-0.0334,-0.0324,-0.0314,-0.0277,-0.0263,-0.0429,-0.0429,-0.0429,-0.0429,0,-0.0423,-0.0416,-0.0417,-0.04,-0.0397,-0.0402,-0.039,-0.0389,-0.0394,-0.0387,-0.037,-0.0378,-0.0365,-0.0372,-0.0381,-0.0322,-0.0328,-0.0342,-0.033,-0.03,-0.0264,-0.025,-0.0426,-0.0427,-0.0427,-0.0428,0,0,-0.0455,-0.0424,-0.0426,-0.0412,-0.0393,-0.0397,-0.0368,-0.0347,-0.033,-0.0328,-0.03,-0.0289,-0.0292,-0.0285,-0.0296,-0.0248,-0.0172,-0.0263,-0.0261,-0.0208,-0.0058,-0.0094,-0.0083,-0.0172,-0.0169,-0.0167,-0.0063,0,-0.0458,-0.0446,-0.0421,-0.0406,-0.0396,-0.0374,-0.035,-0.0327,-0.0311,-0.0289,-0.026,-0.0251,-0.0257,-0.0263,-0.0207,-0.0198,-0.0132,-0.0199,-0.0108,-0.0105,-0.0127,-0.0066,-0.0158,-0.0052,-0.0049,-0.0047,-0.0045,0,-0.0464,-0.0454,-0.0443,-0.0404,-0.0396,-0.0387,-0.0349,-0.0328,-0.0275,-0.026,-0.0214,-0.0206,-0.0147,-0.0166,-0.0062,-0.0106,-0.0063,-0.0041,-0.0037,-0.0066,-0.0115,-0.0088,-0.0019,-0.0021,-0.0023,-0.0025,-0.0026,0,-0.0497,-0.0466,-0.0462,-0.0451,-0.0411,-0.0399,-0.0379,-0.0328,-0.0313,-0.0249,-0.0236,-0.0152,-0.0141,-0.0053,-0.0016,-0.0029,0.0096,0.0078,0.0102,0.0099,0.0085,0.0073,0.0194,0.0194,0.0194,0.0193,0.0193,0,-0.0507,-0.0502,-0.0484,-0.0483,-0.0478,-0.0432,-0.0419,-0.038,-0.0332,-0.0314,-0.0236,-0.0211,-0.0111,-0.0044,0.0017,0.0096,0.013,0.0139,0.0138,0.0092,0.008,0.0095,0.0082,0.0197,0.0196,0.0196,0.0195,0,-0.0534,-0.0523,-0.0523,-0.0499,-0.0497,-0.0499,-0.0469,-0.0458,-0.0399,-0.0374,-0.0358,-0.0252,-0.0158,-0.0058,0.0066,0.0112,0.0199,0.0224,0.0168,0.0156,0.0166,0.0154,0.0287,0.0287,0.0287,0.0287,0.0287,0,-0.0538,-0.0547,-0.0559,-0.0575,-0.0571,-0.0568,-0.057,-0.0512,-0.05,-0.041,-0.0406,-0.0297,-0.0225,-0.006,0.0049,0.02,0.0208,0.0262,0.0237,0.0198,0.0183,0.0171,0.0158,0.0287,0.0287,0.0287,0.0287,0,-0.055,-0.0574,-0.0582,-0.0624,-0.0644,-0.0651,-0.0647,-0.0639,-0.0572,-0.0531,-0.0443,-0.0331,-0.0217,-0.0074,0.0041,0.0142,0.0232,0.0261,0.0262,0.024,0.0199,0.0181,0.017,0.0286,0.0286,0.0286,0.0286,0,-0.0571,-0.0595,-0.0627,-0.0654,-0.0692,-0.071,-0.07,-0.0671,-0.064,-0.054,-0.0519,-0.0364,-0.0272,-0.0103,-0.0002,0.01,0.0128,0.0154,0.0161,0.0163,0.0085,0.0012,0.007,0,0,0,0,0,-0.0581,-0.061,-0.0647,-0.0677,-0.0718,-0.0731,-0.0738,-0.0719,-0.0668,-0.0622,-0.0562,-0.0453,-0.026,-0.0164,-0.0066,-0.0008,0.0139,0.0109,0.017,0.0285,0.0285,0.021,0,0,0,0,0,0,-0.059,-0.0634,-0.0648,-0.0689,-0.0712,-0.0745,-0.075,-0.0719,-0.0679,-0.0617,-0.0516,-0.0443,-0.0259,-0.0322,-0.0068,-0.0033,0.0015,0.0206,0.0208,0.0284,0.0285,0.0285,0.0209,0,0,0,0,0]}]]